Weather Roundup
Issued by NWS

Home | Current Version | Previous Version | Graphics & Text | Print | Product List | Glossary Off
Versions: 1 2 3 4 5 6 7 8 9 10 11 12 13 14 15 16 17 18 19 20 21 22 23 24 25 26 27 28 29 30 31 32 33 34 35 36 37 38 39 40 41 42 43 44 45 46 47 48 49 50

000
NZUS93 KARX 201559
HRRWXR

CURRENT HOURLY OBSERVATIONS ACROSS
MUCH OF THE UPPER MISSISSIPPI VALLEY
NATIONAL WEATHER SERVICE LA CROSSE WI
1100 AM CDT THU JUL 20 2017


...SOUTHEAST MINNESOTA...


CITY           SKY/WX    TMP DP  RH WIND       PRES   REMARKS
ROCHESTER      PTSUNNY   79  71  76 NE5       30.04R
ROCHESTER/MAYO FAIR      78  70  76 CALM      30.04S
WINONA         PTSUNNY   77  70  78 CALM      30.02S
AUSTIN         MOSUNNY   79  70  73 E7        30.02F
ALBERT LEA     MOSUNNY   79  72  78 E7        30.02F
DODGE CENTER   MOSUNNY   79  70  73 CALM      30.04S
PRESTON        CLOUDY    77  68  74 CALM      30.04S
OWATONNA       CLOUDY    79  72  78 E3        30.03S
FARIBAULT      CLOUDY    79  72  78 CALM      30.03F
$$

...ELSEWHERE IN MINNESOTA...


CITY           SKY/WX    TMP DP  RH WIND       PRES   REMARKS
MINNEAPOLIS    PTSUNNY   79  70  74 CALM      30.03R
INTNL FALLS    SUNNY     74  58  57 NW10      30.00R
DULUTH         MOSUNNY   76  63  64 NW10      30.01R
RED WING       MOSUNNY   77  70  78 S6        30.01S
REDWOOD FALLS  CLOUDY    75  68  78 SE3       30.03R
MANKATO        PTSUNNY   77  71  82 E6        30.03F
WORTHINGTON    PTSUNNY   78  69  73 E14       30.05R
FAIRMONT         N/A     79  73  82 VRB7      30.03R
$$

...SOUTHWEST WISCONSIN...


CITY           SKY/WX    TMP DP  RH WIND       PRES   REMARKS
LA CROSSE      SUNNY     82  71  69 N6        30.01R
PRAIRIE DU CHI CLOUDY    75  73  91 CALM      30.00R
BOSCOBEL       SUNNY     81  70  69 W3        30.00R
LONE ROCK      MOSUNNY   79  71  76 W5        29.99F
PLATTEVILLE    MOSUNNY   76  75  94 SW9       30.00S
FORT MC COY    SUNNY     76  69  77 SW6       30.02S
MAUSTON-NEW LI MOSUNNY   77  70  80 W5        30.00S
VIROQUA        FAIR      76  71  83 CALM      30.03R
WIS DELLS      MOSUNNY   78  67  70 W7        30.01R
$$

...ELSEWHERE IN WISCONSIN...


CITY           SKY/WX    TMP DP  RH WIND       PRES   REMARKS
MILWAUKEE      MOSUNNY   80  69  69 W13       29.97F
MADISON        PTSUNNY   77  70  79 W6        29.99S
GREEN BAY      MOSUNNY   79  70  74 W14       29.97F
EAU CLAIRE     CLOUDY    73  68  84 SW7       30.01R
BLACK RVR FLS  PTSUNNY   79  68  68 W3        30.02R
MEDFORD        CLOUDY    71  65  80 W3        30.02S
WAUSAU         CLOUDY    75  65  70 W7        30.00S
WIS RAPIDS     PTSUNNY   75  68  78 NW7       30.04R
MARSHFIELD     CLOUDY    73  66  78 W6        30.03R
RICE LAKE      CLOUDY    74  65  72 SW5       30.04R
$$

...NORTHEAST IOWA...


CITY           SKY/WX    TMP DP  RH WIND       PRES   REMARKS
WATERLOO       PTSUNNY   85  74  69 CALM      29.96R HX  92
DUBUQUE        CLOUDY    77  72  84 S10       30.00F
DECORAH        CLOUDY    77  72  83 CALM      30.01S
MASON CITY     CLOUDY    78  73  84 NE8       30.02R
CHARLES CITY   CLOUDY    77  75  94 E6        30.01S
OELWEIN        SUNNY     81  77  89 S5        30.00R
$$

...ELSEWHERE IN IOWA...


CITY           SKY/WX    TMP DP  RH WIND       PRES   REMARKS
DES MOINES     PTSUNNY   90  72  55 W7        29.96S HX  97
IOWA CITY      MOSUNNY   85  76  74 S6        29.99S HX  94
FORT DODGE     SUNNY     84  73  70 NE5       30.00R HX  91
MARSHALLTOWN   SUNNY     85  76  74 W3        29.96F HX  94
CEDAR RAPIDS   CLOUDY    82  79  90 S6        29.97F HX  92
$$

...NORTHERN ILLINOIS...


CITY           SKY/WX    TMP DP  RH WIND       PRES   REMARKS
CHICAGO-OHARE  CLOUDY    78  70  76 SW15G21   29.96F
CHICAGO-MIDWAY CLOUDY    78  71  79 SW15G22   29.97F
MOLINE         CLOUDY    79  73  82 S6        29.99F
ROCKFORD       CLOUDY    81  72  74 SW14      29.99F
PEORIA         PTSUNNY   80  75  84 S13       30.02F
$$

NOTE: "FAIR" INDICATES FEW OR NO CLOUDS BELOW 12,000 FEET WITH NO
SIGNIFICANT WEATHER AND/OR OBSTRUCTIONS TO VISIBILITY. WIND
SPEEDS ARE IN MILES-PER-HOUR.




USA.gov is the U.S. government's official web portal to all federal, state and local government web resources and services.